ITY1430 LIMF-LIRF

Flight info

Callsign ITY1430
Flight time N/A
Altitude 19000
Route LAGEN L50 ANAKI/N0438F350 DCT BAKRO DCT ELB/N0438F360 DCT ELKAP
Aircraft A320/M-SDE3FGHIRWY/LB1

Departure

Time 2026-04-27 10:14
Airport Turin Airport (LIMF)

Arrival

Time N/A
Airport Rome–Fiumicino Leonardo da Vinci International Airport (LIRF)
Time Latitude Longitude Altitude Speed Heading
2026-04-27 09:57 45.19165 7.64525 991 ft 0 kts 256°
2026-04-27 10:09 45.19167 7.64541 993 ft 2 kts 252°
2026-04-27 10:09 45.19173 7.64560 989 ft 2 kts 241°
2026-04-27 10:10 45.19181 7.64578 994 ft 2 kts 230°
2026-04-27 10:10 45.19183 7.64583 993 ft 0 kts 227°
2026-04-27 10:11 45.19183 7.64582 993 ft 0 kts 227°
2026-04-27 10:11 45.19172 7.64566 990 ft 0 kts 227°
2026-04-27 10:11 45.19141 7.64540 993 ft 5 kts 161°
2026-04-27 10:11 45.19082 7.64594 988 ft 14 kts 143°
2026-04-27 10:12 45.18995 7.64619 988 ft 13 kts 176°
2026-04-27 10:12 45.18899 7.64643 992 ft 15 kts 173°
2026-04-27 10:12 45.18785 7.64640 985 ft 18 kts 182°
2026-04-27 10:12 45.18659 7.64646 986 ft 17 kts 154°
2026-04-27 10:13 45.18622 7.64782 981 ft 18 kts 74°
2026-04-27 10:13 45.18725 7.64878 982 ft 19 kts
2026-04-27 10:13 45.19006 7.64893 982 ft 81 kts
2026-04-27 10:13 45.19838 7.64950 991 ft 154 kts
2026-04-27 10:14 45.21022 7.65003 1444 ft 178 kts
2026-04-27 10:14 45.22273 7.65101 2293 ft 185 kts
2026-04-27 10:14 45.23570 7.65261 2750 ft 188 kts
2026-04-27 10:14 45.24907 7.65475 3358 ft 188 kts
2026-04-27 10:15 45.26194 7.65724 3202 ft 190 kts 11°
2026-04-27 10:15 45.27508 7.66128 3231 ft 206 kts 21°
2026-04-27 10:15 45.28709 7.67329 4080 ft 216 kts 56°
2026-04-27 10:15 45.29194 7.69284 5299 ft 210 kts 91°
2026-04-27 10:16 45.28795 7.71196 6476 ft 199 kts 120°
2026-04-27 10:16 45.28044 7.72837 7352 ft 200 kts 128°
2026-04-27 10:16 45.27110 7.74381 7994 ft 211 kts 135°
2026-04-27 10:16 45.26000 7.75794 8721 ft 217 kts 143°
2026-04-27 10:17 45.24751 7.77031 9546 ft 220 kts 150°
2026-04-27 10:17 45.23402 7.78074 10405 ft 220 kts 153°
2026-04-27 10:17 45.22092 7.79167 11150 ft 223 kts 148°
2026-04-27 10:17 45.20791 7.80453 11869 ft 228 kts 142°
2026-04-27 10:18 45.19630 7.81986 12532 ft 233 kts 132°
2026-04-27 10:18 45.18640 7.83815 13261 ft 235 kts 122°
2026-04-27 10:18 45.17865 7.85867 14015 ft 237 kts 112°
2026-04-27 10:18 45.17329 7.88093 14660 ft 239 kts 103°
2026-04-27 10:19 45.17052 7.90420 15294 ft 242 kts 93°
2026-04-27 10:19 45.16931 7.92819 15883 ft 247 kts 101°
2026-04-27 10:19 45.16386 7.95143 16483 ft 252 kts 117°
2026-04-27 10:19 45.15402 7.97205 17122 ft 255 kts 133°
2026-04-27 10:20 45.14051 7.98841 17760 ft 257 kts 148°
2026-04-27 10:20 45.12426 7.99644 17831 ft 245 kts 181°
2026-04-27 10:20 45.10747 7.98951 16887 ft 279 kts 221°
2026-04-27 10:20 45.09717 7.96567 17127 ft 290 kts 263°
2026-04-27 10:21 45.09618 7.93747 17787 ft 300 kts 270°
2026-04-27 10:21 45.09622 7.90625 17766 ft 333 kts 272°
2026-04-27 10:21 45.09702 7.87197 17794 ft 363 kts 274°
2026-04-27 10:21 45.09864 7.83479 17857 ft 391 kts 275°
2026-04-27 10:22 45.10111 7.79520 17929 ft 417 kts 276°
2026-04-27 10:22 45.10448 7.75322 18009 ft 442 kts 278°
2026-04-27 10:22 45.10875 7.70904 18163 ft 461 kts 279°
2026-04-27 10:22 45.11355 7.66396 18740 ft 470 kts 280°
2026-04-27 10:23 45.11851 7.61833 18540 ft 457 kts 280°
2026-04-27 10:23 45.12585 7.57807 16978 ft 385 kts 296°
2026-04-27 10:23 45.14136 7.55230 15612 ft 325 kts 324°
2026-04-27 10:23 45.16143 7.54287 14230 ft 294 kts 356°
2026-04-27 10:24 45.18041 7.55007 12729 ft 281 kts 30°
2026-04-27 10:24 45.19349 7.56973 11233 ft 272 kts 52°
2026-04-27 10:24 45.20670 7.58834 9661 ft 267 kts 27°
2026-04-27 10:24 45.22428 7.59079 8629 ft 247 kts 348°
2026-04-27 10:25 45.23969 7.58503 8221 ft 209 kts 350°
2026-04-27 10:25 45.25283 7.58820 8047 ft 187 kts 25°
2026-04-27 10:25 45.26397 7.59768 7422 ft 191 kts 36°
2026-04-27 10:25 45.27160 7.61264 6624 ft 195 kts 74°
2026-04-27 10:26 45.27139 7.63264 5331 ft 213 kts 109°
2026-04-27 10:26 45.26252 7.64839 4489 ft 198 kts 142°
2026-04-27 10:26 45.24900 7.65316 3046 ft 210 kts 179°
2026-04-27 10:26 45.23419 7.65173 1689 ft 213 kts 182°
2026-04-27 10:27 45.22048 7.65084 1191 ft 183 kts 180°
2026-04-27 10:27 45.20855 7.65014 1001 ft 154 kts 180°
2026-04-27 10:27 45.19916 7.64960 980 ft 110 kts 182°
2026-04-27 10:27 45.19491 7.64875 990 ft 29 kts 226°
2026-04-27 10:28 45.19467 7.64743 985 ft 40 kts 276°